Home   Weather   Ghent   Past weeks

Flag for Belgium Past Weather in Ghent, Belgium — Yesterday and Last 2 Weeks

Now
35 °F

Fog.


Feels Like: N/A
Forecast: 29 / 39 °F
Wind: N/A

Location: Munte

Current Time: Jan 23, 2017 at 11:55:31 am

Latest Report: Jan 23, 2017 at 11:00 am


Visibility: 1 mi

Pressure: 30.39 "Hg

Humidity: 91%

Dew Point: 33 °F

Location of GhentLocation

Past Weather in Ghent — Graph

°F

Ghent Temperature Yesterday

Maximum temperature yesterday: 39 °F (at 3:00 pm)
Minimum temperature yesterday: 24 °F (at 8:00 am)
Average temperature yesterday: 30 °F

High & Low Weather Summary for the Past Weeks

 TemperatureHumidityPressure
High52 °F (Jan 11, 1:00 pm)100% (Jan 8, 11:00 am)30.72 "Hg (Jan 8, 11:00 am)
Low24 °F (Jan 22, 8:00 am)37% (Jan 20, 4:00 pm)29.00 "Hg (Jan 12, 11:00 pm)
Average35 °F84%30.27 "Hg
* Reported Jan 8 11:00 am — Jan 23 10:00 am, Ghent, Weather by CustomWeather, © 2017

Note: Actual official high and low records may vary slightly from our data, if they occured in-between our weather recording intervals... More about our weather records

Advertising

Ghent Weather History for the Previous 24 Hours

Scroll right to see more
 ConditionsComfort  
Time TempWeatherWind HumidityBarometerVisibility
10:00 am
Mon, Jan 23
34 °FFog.N/A91%30.39 "Hg1 mi
9:00 am33 °FFog.N/A92%30.38 "Hg1 mi
8:00 am33 °FFog.N/A96%30.37 "Hg1 mi
7:00 am32 °FFog.N/A95%30.36 "Hg1 mi
6:00 am33 °FFog.N/A91%30.36 "Hg2 mi
5:00 am33 °FFog.N/A94%30.36 "Hg1 mi
4:00 am33 °FFog.N/A92%30.36 "Hg1 mi
3:00 am32 °FFog.N/A93%30.36 "Hg1 mi
2:00 am31 °FFog.N/A93%30.38 "Hg1 mi
1:00 am31 °FFog.N/A92%30.38 "Hg1 mi
12:00 am31 °FFog.N/A93%30.38 "Hg1 mi
11:00 pm
Sun, Jan 22
30 °FFog.N/A94%30.38 "Hg1 mi
10:00 pm29 °FFog.N/A92%30.37 "Hg1 mi
9:00 pm29 °FFog.N/A89%30.36 "Hg1 mi
8:00 pm30 °FFog.N/A84%30.35 "Hg2 mi
7:00 pm32 °FFog.N/A78%30.33 "Hg2 mi
6:00 pm34 °FFog.N/A72%30.33 "Hg2 mi
5:00 pm35 °FChilly.N/A71%30.33 "Hg3 mi
4:00 pm37 °FChilly.N/A62%30.34 "Hg4 mi
3:00 pm39 °FChilly.N/A58%30.33 "Hg3 mi
2:00 pm38 °FChilly.N/A62%30.34 "Hg3 mi
1:00 pm36 °FChilly.N/A65%30.36 "Hg3 mi
12:00 pm32 °FChilly.N/A71%30.37 "Hg3 mi
11:00 am30 °FFog.N/A78%30.37 "Hg3 mi
Weather by CustomWeather, © 2017

See weather overviewHow to use our weather pages